User: anonymous   Login
Location: Unspecified
(0.0000°N, 0.0000°E)
Time: 03:50:07
(UTC+00:00)
Language:

N. Korean satellite - Orbit

View from above orbital plane
View from above orbital plane
View from above satellite
View from above satellite

Ground track
Ground track

The orbit data is extracted from the following two-line orbital elements,

1 39026U 12072A   16180.84598529  .00001715  00000-0  72618-4 0  9990
2 39026  97.2476 204.6658 0042046 348.8824  11.1480 15.23727542196156
Epoch (UTC): 28 June 2016 20:18:13
Eccentricity: 0.0042046
inclination: 97.2476°
perigee height: 466 km
apogee height: 523 km
right ascension of ascending node: 204.6658°
argument of perigee: 348.8824°
revolutions per day: 15.23727542
mean anomaly at epoch: 11.1480°
orbit number at epoch: 19615

The dashed part of the orbit path shows where the satellite is in the earth's shadow,  

DLR